CET,Max TemperatureF,Mean TemperatureF,Min TemperatureF,Max Dew PointF,MeanDew PointF,Min DewpointF,Max Humidity, Mean Humidity, Min Humidity, Max Sea Level PressureIn, Mean Sea Level PressureIn, Min Sea Level PressureIn, Max VisibilityMiles, Mean VisibilityMiles, Min VisibilityMiles, Max Wind SpeedMPH, Mean Wind SpeedMPH, Max Gust SpeedMPH,PrecipitationIn, CloudCover, Events, WindDirDegrees
2013-1-1,60,56,53,50,47,45,77,67,59,30.21,30.19,30.18,6,6,6,16,8,,0.00,1,,267
2013-1-2,60,58,57,50,46,43,77,61,55,30.21,30.16,30.12,6,6,6,20,13,,0.00,2,,218
2013-1-3,60,60,59,52,51,50,77,74,68,30.42,30.35,30.27,6,6,6,15,13,,0.00,1,,78
2013-1-4,60,58,57,54,51,48,88,77,67,30.45,30.41,30.36,6,6,6,20,14,,0.00,3,,3
2013-1-5,60,58,57,54,51,48,82,74,67,30.36,30.27,30.18,6,6,6,21,16,31,0.00,3,,320
2013-1-6,60,60,59,52,51,50,77,74,68,30.24,30.20,30.15,6,6,6,23,20,,0.00,2,,336
2013-1-7,62,60,57,54,52,50,82,75,63,30.21,30.18,30.15,6,6,6,17,13,,0.00,3,,295
2013-1-8,62,58,55,54,52,52,88,79,68,30.33,30.30,30.24,6,6,6,16,10,,0.00,1,,341
2013-1-9,62,58,55,54,52,50,88,78,72,30.30,30.27,30.24,6,6,6,14,11,,0.00,2,,278
2013-1-10,60,58,55,54,51,50,88,78,68,30.18,30.13,30.09,6,6,6,10,5,,0.00,1,,248
2013-1-11,62,60,57,54,51,48,82,72,63,30.12,30.07,30.06,6,6,6,20,15,,0.00,3,,291
2013-1-12,60,58,55,46,45,43,72,61,55,30.18,30.15,30.09,6,6,6,17,13,,0.00,1,,319
2013-1-13,62,60,57,54,50,48,77,71,59,30.12,30.05,29.98,6,6,6,18,14,,0.00,4,,197
2013-1-14,62,60,59,54,52,50,77,71,68,30.01,29.96,29.95,,,,17,14,,0.00,,,205
2013-1-15,59,54,48,52,46,41,93,73,55,29.95,29.91,29.86,6,6,4,22,16,36,0.00,3,Rain-Hail-Thunderstorm,306
2013-1-16,59,55,51,48,44,37,77,62,48,29.92,29.87,29.83,6,6,5,29,23,41,0.00,2,Rain,261
2013-1-17,60,56,53,52,48,45,82,70,63,29.80,29.72,29.65,6,6,6,28,22,37,0.00,2,Rain,256
2013-1-18,59,56,53,50,44,39,77,62,51,29.80,29.75,29.71,6,6,6,28,22,41,0.00,3,,277
2013-1-19,62,60,57,57,55,50,88,81,77,29.77,29.73,29.68,6,6,6,22,13,,0.00,1,,221
2013-1-20,64,62,57,57,54,43,88,75,48,29.65,29.55,29.47,6,6,6,25,18,36,0.00,2,Rain,189
2013-1-21,60,58,55,48,45,43,72,62,55,29.77,29.74,29.65,6,6,6,26,21,,0.00,3,,254
2013-1-22,59,57,55,46,45,43,67,64,59,30.01,29.94,29.86,6,6,6,20,16,,0.00,2,,276
2013-1-23,60,58,53,50,48,43,77,65,52,29.92,29.85,29.77,6,6,6,29,20,41,0.00,2,,225
2013-1-24,59,55,51,45,41,37,67,57,48,29.83,29.72,29.62,6,5,2,34,27,50,0.00,3,,250
2013-1-25,55,52,50,46,43,41,87,72,58,29.71,29.62,29.53,6,6,4,33,27,45,0.00,4,Rain,285
2013-1-26,55,52,50,46,44,39,82,72,62,29.92,29.83,29.77,6,6,4,26,20,37,0.00,3,Rain,295
2013-1-27,57,54,50,45,40,36,82,57,44,30.09,30.02,29.95,6,6,6,20,14,,0.00,3,Rain,328
2013-1-28,59,56,53,50,48,46,88,72,63,30.06,29.96,29.89,6,6,4,30,17,30,0.00,2,Rain,248
2013-1-29,59,58,55,54,52,50,88,80,72,30.30,30.12,29.86,6,6,6,33,23,,0.00,3,Rain,3
2013-1-30,59,57,53,50,48,45,82,72,59,30.33,30.30,30.27,6,6,6,18,13,,0.00,3,,296
2013-1-31,62,60,57,55,52,46,88,77,55,30.30,30.26,30.21,6,6,5,31,18,44,0.00,2,,320